Torna al catalogo

MIKROGLOB-1

AttivoRadioamatoreSSO
NORAD 69895·PAYLOAD·🇨🇦 Canada

Lanciato Jul 7, 2026 da Vandenberg Space Force Base

Loading…

Prossimi Passaggi (prossime 24 ore)

TLE

AggiornatoSource: Space-Track

Epoca: Sep 14, 2026, 04:04 UTC

1 69895U 26156AC  26257.16996760  .00000600  00000-0  65250-4 0  9991
2 69895  97.7436 156.4356 0004786 279.7835  80.2843 14.91646014 10261

Traccia MIKROGLOB-1 in tempo reale con AllMySat

Download on the App Store